Satellite: CO-58
Catalog number: 28895
Epoch time:      09296.72074216
Element set:    0425
Inclination:      098.0383 deg
RA of node:       183.6041 deg
Eccentricity:    0.0017338
Arg of perigee:   308.7696 deg
Mean anomaly:     051.2023 deg
Mean motion:   14.59806225 rev/day
Decay rate:       1.81e-06 rev/day^2
Epoch rev:           21248
Checksum:              318

Satellite: FALCON
Catalog number: 30776
Epoch time:      09296.67795794
Element set:    0689
Inclination:      035.4337 deg
RA of node:       039.7844 deg
Eccentricity:    0.0002173
Arg of perigee:   318.9592 deg
Mean anomaly:     041.0960 deg
Mean motion:   15.03338298 rev/day
Decay rate:       4.97e-06 rev/day^2
Epoch rev:           14444
Checksum:              344

Satellite: MAST
Catalog number: 31126
Epoch time:      09297.79726635
Element set:     714
Inclination:      097.9726 deg
RA of node:       346.5581 deg
Eccentricity:    0.0093627
Arg of perigee:   237.3676 deg
Mean anomaly:     121.8595 deg
Mean motion:   14.53524673 rev/day
Decay rate:        9.9e-07 rev/day^2
Epoch rev:           13386
Checksum:              350

Satellite: CAPE1
Catalog number: 31130
Epoch time:      09296.72344178
Element set:     725
Inclination:      097.9752 deg
RA of node:       343.4389 deg
Eccentricity:    0.0101790
Arg of perigee:   246.9820 deg
Mean anomaly:     112.0608 deg
Mean motion:   14.52096394 rev/day
Decay rate:        8.0e-07 rev/day^2
Epoch rev:           13334
Checksum:              300

Satellite: COMPASS
Catalog number: 32787
Epoch time:      09297.22644294
Element set:     498
Inclination:      097.9278 deg
RA of node:       359.8616 deg
Eccentricity:    0.0015311
Arg of perigee:   337.1613 deg
Mean anomaly:     022.8906 deg
Mean motion:   14.81676761 rev/day
Decay rate:       4.63e-06 rev/day^2
Epoch rev:            8055
Checksum:              337

Satellite: AAUSAT2
Catalog number: 32788
Epoch time:      09296.84585674
Element set:     492
Inclination:      097.9290 deg
RA of node:       359.5666 deg
Eccentricity:    0.0014951
Arg of perigee:   339.6446 deg
Mean anomaly:     020.4116 deg
Mean motion:   14.81801656 rev/day
Decay rate:        4.3e-07 rev/day^2
Epoch rev:            8050
Checksum:              333

Satellite: DO-64
Catalog number: 32789
Epoch time:      09297.74502076
Element set:     508
Inclination:      097.9329 deg
RA of node:       000.7067 deg
Eccentricity:    0.0015185
Arg of perigee:   334.5189 deg
Mean anomaly:     025.5272 deg
Mean motion:   14.81826495 rev/day
Decay rate:       6.74e-06 rev/day^2
Epoch rev:            8063
Checksum:              337

Satellite: CO-66
Catalog number: 32791
Epoch time:      09297.82486167
Element set:     490
Inclination:      097.9302 deg
RA of node:       000.4863 deg
Eccentricity:    0.0015763
Arg of perigee:   333.4297 deg
Mean anomaly:     026.6103 deg
Mean motion:   14.81496984 rev/day
Decay rate:       5.78e-06 rev/day^2
Epoch rev:            8060
Checksum:              336

Satellite: RS-30
Catalog number: 32953
Epoch time:      09296.73158952
Element set:    0436
Inclination:      082.5044 deg
RA of node:       176.6969 deg
Eccentricity:    0.0018112
Arg of perigee:   260.3567 deg
Mean anomaly:     099.5467 deg
Mean motion:   12.43003062 rev/day
Decay rate:        1.0e-07 rev/day^2
Epoch rev:           06436
Checksum:              305

Satellite: TACSAT-3
Catalog number: 35001
Epoch time:      09296.88252877
Element set:     126
Inclination:      040.4547 deg
RA of node:       190.7883 deg
Eccentricity:    0.0022883
Arg of perigee:   035.5837 deg
Mean anomaly:     324.6519 deg
Mean motion:   15.39381046 rev/day
Decay rate:      3.056e-05 rev/day^2
Epoch rev:            2418
Checksum:              316

Satellite: PHARMSAT
Catalog number: 35002
Epoch time:      09296.86983806
Element set:     122
Inclination:      040.4681 deg
RA of node:       189.9522 deg
Eccentricity:    0.0026441
Arg of perigee:   039.7984 deg
Mean anomaly:     320.4776 deg
Mean motion:   15.40115725 rev/day
Decay rate:      2.865e-05 rev/day^2
Epoch rev:            2418
Checksum:              309

Satellite: HAWKSAT1
Catalog number: 35003
Epoch time:      09297.78085840
Element set:     129
Inclination:      040.4599 deg
RA of node:       183.5241 deg
Eccentricity:    0.0025950
Arg of perigee:   050.1029 deg
Mean anomaly:     310.2120 deg
Mean motion:   15.41035834 rev/day
Decay rate:      6.760e-05 rev/day^2
Epoch rev:            2434
Checksum:              267

Satellite: CP6
Catalog number: 35004
Epoch time:      09297.77772542
Element set:     122
Inclination:      040.4594 deg
RA of node:       183.5019 deg
Eccentricity:    0.0025321
Arg of perigee:   049.8265 deg
Mean anomaly:     310.5262 deg
Mean motion:   15.41148409 rev/day
Decay rate:      7.571e-05 rev/day^2
Epoch rev:            2433
Checksum:              287

Satellite: AEROCUB3
Catalog number: 35005
Epoch time:      09296.82542835
Element set:    0125
Inclination:      040.4739 deg
RA of node:       189.6749 deg
Eccentricity:    0.0024974
Arg of perigee:   040.5256 deg
Mean anomaly:     319.7544 deg
Mean motion:   15.40901194 rev/day
Decay rate:      6.122e-05 rev/day^2
Epoch rev:           02418
Checksum:              307

